Weather History for Troy, MI

Change the Weather History Date:

Friday, October 18, 2013

  Actual Average (KDET) Record (KDET)
Temperature  
Mean Temperature 54 °F -  
Max Temperature 64 °F 57 °F 84 °F (1963)
Min Temperature 45 °F 43 °F 28 °F (1948)
Degree Days  
Heating Degree Days 10    
Growing Degree Days 4 (Base 50)    
Moisture  
Dew Point 41 °F    
Average Humidity 68    
Maximum Humidity 92    
Minimum Humidity 33    
Precipitation  
Precipitation 0.00 in - - ()
Sea Level Pressure  
Sea Level Pressure 29.90 in    
Wind  
Wind Speed 6 mph (SW)    
Max Wind Speed 17 mph    
Max Gust Speed 23 mph    
Visibility 10 miles    
Events      
Averages and records for this station are not official NWS values.
T = Trace of Precipitation, MM = Missing Value Source: NWS Daily Summary

Daily Weather History Graph

Daily Weather History Graph

Search for Another Location

Airport:

Trip Planner

Search our weather history database for the weather conditions in past years. The results will help you decide how hot, cold, wet, or windy it might be!

Date:

Astronomy

Oct. 18, 2013 Rise Set
Actual Time 7:49 AM EDT 6:45 PM EDT
Civil Twilight 7:21 AM EDT 7:13 PM EDT
Nautical Twilight 6:48 AM EDT 7:46 PM EDT
Astronomical Twilight 6:15 AM EDT 8:19 PM EDT
Moon 6:34 PM EDT (10/18) 7:23 AM EDT (10/18)
Length of Visible Light 11h 52m
Length of Day
10h 55m
Full, 100% of the Moon is Illuminated
Oct 18
Full
Oct 18
Full
Oct 26
Last Quarter
Nov 3
New
Nov 10
First Quarter

Hourly Weather History & Observations

Time (EDT) Temp. Windchill Dew Point Humidity Pressure Visibility Wind Dir Wind Speed Gust Speed Precip Events Conditions
12:14 AM 48.7 °F - 44.2 °F 84% 29.86 in 10.0 mi WSW 6.9 mph - N/A   Mostly Cloudy
12:35 AM 48.2 °F - 43.9 °F 85% 29.86 in 10.0 mi WSW 5.8 mph - N/A   Scattered Clouds
12:54 AM 47.5 °F - 43.7 °F 87% 29.86 in 10.0 mi WSW 5.8 mph - N/A   Clear
1:15 AM 46.9 °F - 43.7 °F 88% 29.87 in 10.0 mi SW 4.6 mph - N/A   Clear
1:34 AM 46.8 °F - 43.7 °F 89% 29.87 in 10.0 mi WSW 5.8 mph - N/A   Scattered Clouds
1:55 AM 46.4 °F 44.3 °F 43.5 °F 90% 29.88 in 10.0 mi SW 4.6 mph - N/A   Scattered Clouds
2:15 AM 46.0 °F 43.9 °F 43.5 °F 91% 29.88 in 10.0 mi SW 4.6 mph - N/A   Clear
2:34 AM 46.2 °F 45.0 °F 43.7 °F 91% 29.88 in 10.0 mi SW 3.5 mph - N/A   Scattered Clouds
2:55 AM 46.6 °F - 44.1 °F 91% 29.88 in 10.0 mi SW 4.6 mph - N/A   Overcast
3:15 AM 47.3 °F - 44.6 °F 90% 29.88 in 10.0 mi SW 4.6 mph - N/A   Overcast
3:34 AM 46.9 °F - 44.2 °F 90% 29.87 in 10.0 mi SW 5.8 mph - N/A   Scattered Clouds
3:55 AM 46.9 °F - 44.6 °F 92% 29.87 in 10.0 mi SW 4.6 mph - N/A   Mostly Cloudy
4:14 AM 46.8 °F - 44.2 °F 91% 29.88 in 10.0 mi SW 6.9 mph - N/A   Scattered Clouds
4:35 AM 47.3 °F - 44.6 °F 90% 29.89 in 10.0 mi WSW 4.6 mph - N/A   Mostly Cloudy
4:54 AM 47.1 °F - 43.9 °F 88% 29.89 in 10.0 mi SW 4.6 mph - N/A   Mostly Cloudy
5:15 AM 46.4 °F 43.5 °F 43.2 °F 88% 29.89 in 10.0 mi SSW 5.8 mph - N/A   Clear
5:34 AM 46.0 °F 43.1 °F 43.2 °F 90% 29.89 in 10.0 mi SW 5.8 mph - N/A   Clear
5:55 AM 45.7 °F 42.0 °F 43.0 °F 90% 29.90 in 10.0 mi SSW 6.9 mph - N/A   Clear
6:14 AM 45.5 °F 42.5 °F 43.0 °F 91% 29.90 in 10.0 mi SSW 5.8 mph - N/A   Clear
6:35 AM 45.5 °F 41.8 °F 43.2 °F 92% 29.90 in 7.0 mi SW 6.9 mph - N/A   Clear
6:54 AM 45.7 °F 42.0 °F 43.3 °F 92% 29.90 in 7.0 mi SW 6.9 mph - N/A   Scattered Clouds
7:14 AM 45.5 °F 42.5 °F 43.0 °F 91% 29.90 in 7.0 mi SW 5.8 mph - N/A   Scattered Clouds
7:35 AM 45.5 °F 41.8 °F 42.8 °F 90% 29.91 in 7.0 mi SW 6.9 mph - N/A   Scattered Clouds
7:54 AM 45.1 °F 42.0 °F 42.8 °F 91% 29.91 in 5.0 mi SW 5.8 mph - N/A   Scattered Clouds
8:15 AM 45.1 °F 42.8 °F 42.8 °F 91% 29.92 in 5.0 mi SW 4.6 mph - N/A   Scattered Clouds
8:35 AM 45.1 °F 42.8 °F 42.6 °F 91% 29.92 in 5.0 mi SW 4.6 mph - N/A   Scattered Clouds
8:54 AM 45.3 °F 41.6 °F 42.3 °F 89% 29.93 in 5.0 mi SW 6.9 mph - N/A   Clear
9:15 AM 45.7 °F 42.7 °F 42.3 °F 88% 29.93 in 7.0 mi SW 5.8 mph - N/A   Clear
9:35 AM 46.4 °F 44.3 °F 41.9 °F 84% 29.93 in 10.0 mi SW 4.6 mph - N/A   Clear
9:54 AM 47.3 °F - 42.3 °F 83% 29.93 in 10.0 mi SW 5.8 mph - N/A   Clear
10:15 AM 48.7 °F - 42.4 °F 79% 29.93 in 10.0 mi SW 5.8 mph - N/A   Clear
10:34 AM 50.2 °F - 42.6 °F 75% 29.94 in 10.0 mi WSW 5.8 mph - N/A   Clear
10:55 AM 52.0 °F - 42.4 °F 70% 29.93 in 10.0 mi SW 5.8 mph - N/A   Clear
11:14 AM 52.9 °F - 41.9 °F 66% 29.93 in 10.0 mi SW 4.6 mph - N/A   Scattered Clouds
11:35 AM 54.5 °F - 43.2 °F 66% 29.93 in 10.0 mi SSW 6.9 mph - N/A   Mostly Cloudy
11:54 AM 54.7 °F - 42.1 °F 62% 29.93 in 10.0 mi SW 5.8 mph - N/A   Overcast
12:15 PM 55.6 °F - 41.7 °F 60% 29.93 in 10.0 mi SW 8.1 mph - N/A   Mostly Cloudy
12:34 PM 57.4 °F - 42.8 °F 58% 29.92 in 10.0 mi SW 4.6 mph - N/A   Scattered Clouds
12:55 PM 58.1 °F - 42.3 °F 56% 29.91 in 10.0 mi SW 6.9 mph - N/A   Scattered Clouds
1:14 PM 59.2 °F - 42.4 °F 54% 29.91 in 10.0 mi SSW 9.2 mph - N/A   Scattered Clouds
1:35 PM 59.5 °F - 42.3 °F 53% 29.90 in 10.0 mi WSW 6.9 mph - N/A   Clear
1:54 PM 61.2 °F - 42.1 °F 50% 29.89 in 10.0 mi SW 12.7 mph 16.1 mph N/A   Clear
2:15 PM 61.7 °F - 42.6 °F 50% 29.88 in 10.0 mi SW 10.4 mph - N/A   Clear
2:34 PM 62.1 °F - 41.7 °F 47% 29.88 in 10.0 mi SW 12.7 mph 19.6 mph N/A   Clear
2:55 PM 62.6 °F - 39.0 °F 42% 29.87 in 10.0 mi WSW 9.2 mph 18.4 mph N/A   Clear
3:14 PM 63.3 °F - 36.1 °F 36% 29.87 in 10.0 mi WSW 17.3 mph 23.0 mph N/A   Scattered Clouds
3:35 PM 63.0 °F - 36.1 °F 37% 29.87 in 10.0 mi West 10.4 mph - N/A   Scattered Clouds
3:54 PM 63.7 °F - 36.3 °F 36% 29.87 in 10.0 mi SW 9.2 mph 17.3 mph N/A   Mostly Cloudy
4:15 PM 64.9 °F - 35.2 °F 33% 29.87 in 10.0 mi WSW 10.4 mph - N/A   Mostly Cloudy
4:34 PM 63.7 °F - 35.6 °F 35% 29.87 in 10.0 mi WSW 10.4 mph - N/A   Scattered Clouds
4:54 PM 63.0 °F - 35.1 °F 35% 29.87 in 10.0 mi WSW 6.9 mph 17.3 mph N/A   Scattered Clouds
5:14 PM 64.4 °F - 34.7 °F 33% 29.86 in 10.0 mi WSW 11.5 mph - N/A   Scattered Clouds
5:34 PM 63.5 °F - 34.7 °F 34% 29.86 in 10.0 mi SW 8.1 mph - N/A   Scattered Clouds
5:54 PM 63.3 °F - 34.0 °F 33% 29.86 in 10.0 mi WSW 6.9 mph - N/A   Scattered Clouds
6:15 PM 62.1 °F - 35.4 °F 37% 29.86 in 10.0 mi WSW 6.9 mph - N/A   Clear
6:35 PM 61.0 °F - 36.5 °F 40% 29.87 in 10.0 mi WSW 5.8 mph - N/A   Clear
6:55 PM 59.7 °F - 37.0 °F 43% 29.88 in 10.0 mi WSW 4.6 mph - N/A   Clear
7:14 PM 58.8 °F - 37.6 °F 45% 29.88 in 10.0 mi WSW 6.9 mph - N/A   Clear
7:34 PM 58.1 °F - 37.9 °F 47% 29.89 in 10.0 mi WSW 5.8 mph - N/A   Clear
7:54 PM 57.6 °F - 38.5 °F 49% 29.90 in 10.0 mi West 4.6 mph - N/A   Mostly Cloudy
8:14 PM 57.7 °F - 38.8 °F 49% 29.90 in 10.0 mi West 4.6 mph - N/A   Mostly Cloudy
8:34 PM 57.2 °F - 39.6 °F 52% 29.90 in 10.0 mi WNW 8.1 mph - N/A   Scattered Clouds
8:54 PM 56.3 °F - 40.5 °F 55% 29.91 in 10.0 mi West 6.9 mph - N/A   Scattered Clouds
9:14 PM 55.6 °F - 41.0 °F 58% 29.91 in 10.0 mi WNW 9.2 mph - N/A   Scattered Clouds
9:34 PM 55.0 °F - 41.2 °F 60% 29.92 in 10.0 mi West 8.1 mph - N/A   Scattered Clouds
9:55 PM 54.1 °F - 41.4 °F 62% 29.93 in 10.0 mi West 8.1 mph - N/A   Scattered Clouds
10:14 PM 53.6 °F - 41.2 °F 63% 29.93 in 10.0 mi West 9.2 mph 18.4 mph N/A   Clear
10:35 PM 52.9 °F - 40.3 °F 62% 29.93 in 10.0 mi West 6.9 mph - N/A   Clear
10:54 PM 52.0 °F - 40.5 °F 65% 29.93 in 10.0 mi West 4.6 mph - N/A   Clear
11:15 PM 51.1 °F - 40.6 °F 67% 29.92 in 10.0 mi WSW 3.5 mph - N/A   Scattered Clouds
11:34 PM 50.9 °F - 40.3 °F 67% 29.92 in 10.0 mi West 6.9 mph - N/A   Scattered Clouds
11:55 PM 50.2 °F - 40.3 °F 69% 29.92 in 10.0 mi WSW 4.6 mph - N/A   Clear